Location: Canyon City
(32.5951°N, 116.5278°W)
Time: 02:27:20
(UTC+00:00)

SJ 16-02 - Pass Details

Date: 08 September 2024
Orbit: 593 x 602 km, 75.0° (Epoch: 03 October)

Event Time Altitude Azimuth Distance (km) Brightness Sun altitude
Rises 12:57:07 0° 188° (S) 2,841 4.6 -6.8°
Reaches altitude 10° 12:59:21 10° 186° (S) 1,941 3.8 -6.3°
Maximum altitude 13:03:39 68° 104° (ESE) 651 1.8 -5.5°
Drops below altitude 10° 13:07:58 10° 21° (NNE) 1,948 4.4 -4.6°
Sets 13:10:12 0° 19° (NNE) 2,852 5.2 -4.1°
